Regional Weather Roundup
Issued by NWS

Home | Current Version | Previous Version | Graphics & Text | Print | Product List | Glossary On
Versions: 1 2 3 4 5 6 7 8 9 10 11 12 13 14 15 16 17 18 19 20 21 22 23 24 25 26 27 28 29 30 31 32 33 34 35 36 37 38 39 40 41 42 43 44 45 46 47 48 49 50
000
ASUS43 KFSD 141410
RWRSD

WEATHER ROUNDUP FOR SOUTH DAKOTA
NATIONAL WEATHER SERVICE SIOUX FALLS SD
800 AM CST THU DEC 14 2017

NOTE: "FAIR" INDICATES FEW OR NO CLOUDS BELOW 12,000 FEET WITH NO
SIGNIFICANT WEATHER AND/OR OBSTRUCTIONS TO VISIBILITY.


SDZ001>005-009-010-012>017-141500-
NORTHWEST AND NORTH CENTRAL SOUTH DAKOTA

CITY           SKY/WX    TMP DP  RH WIND       PRES   REMARKS
BUFFALO          N/A     32  27  81 NW29G38   30.06R WCI  18
FAITH            N/A     31  30  96 NW22      30.06R WCI  18
MOBRIDGE       CLOUDY    35  30  82 NW14      30.00R WCI  26
$$

SDZ012>016-024>037-041>051-057-063-072>074-141500-
SOUTHWEST AND SOUTH CENTRAL SOUTH DAKOTA

CITY           SKY/WX    TMP DP  RH WIND       PRES   REMARKS
RAPID CTY ARPT CLOUDY    34  24  67 NW26G38   30.12R WCI  21
PIERRE         LGT RAIN  35  33  92 NW18G30   30.02R WCI  24
CUSTER         FLURRIES  25  17  72 NW12G22   30.05S WCI  14
ELLSWORTH AFB  FLURRIES  34  24  68 NW24G40   30.10  WCI  21
PHILIP         LGT SNOW  33  33 100 NW14      30.09R FOG     WCI  23
PINE RIDGE     CLOUDY    34  29  82 NW3       30.10R
SPEARFISH      LGT SNOW  30  25  80 NW25G32   30.15R WCI  16
WINNER         LGT SNOW  34  32  92 NW10      30.04R FOG     WCI  26
$$

SDZ004>011-016>023-039-040-141500-
NORTHEAST SOUTH DAKOTA

CITY           SKY/WX    TMP DP  RH WIND       PRES   REMARKS
ABERDEEN       CLOUDY    27  27 100 SW3       30.00F
WATERTOWN      CLOUDY    27  26  96 NW3       29.97R
BROOKINGS      CLOUDY    27  25  92 CALM      29.99R
SISSETON         N/A     22  19  89 SE3       30.00S
$$

SDZ017-020-022-023-036>040-048>070-141500-
SOUTHEAST SOUTH DAKOTA

CITY           SKY/WX    TMP DP  RH WIND       PRES   REMARKS
SIOUX FALLS    CLOUDY    28  26  92 S3        30.01R
HURON          CLOUDY    30  26  85 W7        30.00F WCI  23
CHAMBERLAIN    LGT SNOW  32  32 100 NW5       30.02S WCI  27
MITCHELL       CLOUDY    30  25  81 W5        30.02S WCI  25
$$

ABBREVIATIONS USED IN REMARKS
   TC - TEMPERATURE IN CELSIUS
  WCI - WIND CHILL INDEX
   HX - HEAT INDEX
  VSB - VISIBILITY





USA.gov is the U.S. government's official web portal to all federal, state and local government web resources and services.